Temp
12 11 11 11 11 11 11 11 12 11 11 11 10 10 10 9 9 9 8 8 8 8
11 11 11 11 10 10 11 11 11 11 11 11 11 10 10 10 10 9 9 8 8 8
10 10 10 9 9 10 10 10 10 10 10 10 10 10 9 9 9 9 9 9 8 8
10 9 9 9 9 9 9 9 10 10 10 10 10 9 9 9 9 9 9 8 8 8
8 8 9 9 9 9 10 10 9 9 9 9 9 9 9 8 9 9 8 9 8 8
8 8 8 9 9 8 8 9 9 9 9 9 9 8 9 8 8 8 8 8 8 8
7 7 7 8 8 7 7 8 8 8 8 8 7 8 8 7 6 7 6 7 7 8
7 6 7 7 7 7 7 7 6 6 6 7 7 7 7 6 5 6 6 6 7 7
4 6 6 6 7 7 6 6 6 6 6 6 6 6 6 6 6 5 5 5 6 6
3 4 5 6 6 6 6 6 6 6 6 6 6 6 6 5 5 5 5 5 6 6
1 2 3 5 5 6 6 6 6 6 6 6 6 6 6 5 5 5 5 5 6 6
-1 0 1 2 3 4 5 5 6 6 6 6 6 5 6 6 6 5 5 5 5 5
-3 -1 -1 -1 1 2 3 3 4 4 5 5 5 5 5 5 5 5 5 5 5 5
-5 -3 -2 -2 -1 0 2 2 3 3 3 4 4 4 5 5 4 5 5 5 5 5
Height
1476 1480 1483 1487 1491 1495 1498 1502 1506 1511 1515 1517 1521 1524 1527 1529 1533 1537 1540 1543 1547 1551
1471 1475 1478 1482 1486 1490 1493 1497 1501 1505 1508 1511 1515 1518 1521 1523 1526 1529 1533 1537 1541 1545
1466 1470 1474 1477 1481 1484 1487 1490 1494 1497 1501 1505 1508 1511 1513 1516 1520 1523 1526 1530 1534 1539
1462 1466 1469 1471 1475 1477 1481 1484 1487 1490 1493 1496 1498 1501 1505 1508 1512 1515 1520 1524 1528 1532
1457 1460 1463 1467 1468 1471 1473 1476 1479 1482 1485 1488 1490 1491 1495 1499 1503 1507 1513 1516 1521 1525
1454 1455 1459 1460 1462 1463 1466 1469 1471 1474 1477 1479 1480 1483 1487 1491 1495 1499 1504 1510 1515 1519
1449 1452 1455 1456 1459 1460 1462 1464 1466 1468 1470 1473 1475 1478 1481 1485 1488 1493 1496 1503 1508 1513
1447 1450 1452 1455 1456 1458 1459 1461 1463 1465 1467 1468 1471 1474 1477 1480 1483 1487 1491 1497 1503 1508
1441 1446 1450 1452 1453 1455 1457 1459 1462 1463 1464 1465 1467 1470 1474 1476 1478 1481 1485 1490 1496 1501
1441 1444 1445 1448 1451 1452 1456 1458 1459 1460 1461 1463 1465 1467 1470 1473 1476 1479 1482 1486 1490 1494
1443 1444 1445 1447 1449 1451 1453 1456 1457 1458 1459 1461 1463 1466 1469 1471 1474 1477 1480 1484 1486 1489
1446 1446 1447 1448 1449 1450 1451 1452 1455 1457 1458 1460 1461 1464 1467 1468 1470 1473 1477 1479 1483 1484
1450 1450 1450 1450 1447 1449 1450 1452 1454 1454 1457 1459 1460 1464 1465 1467 1468 1471 1474 1473 1476 1479
1453 1450 1449 1450 1451 1451 1452 1452 1452 1454 1457 1458 1460 1462 1463 1466 1466 1468 1470 1472 1474 1476
Wind_Speed
29 31 32 33 35 34 33 33 34 32 33 34 32 31 32 36 38 38 40 40 39 38
30 32 32 31 31 31 29 31 36 36 38 38 37 36 35 36 37 39 39 40 39 38
25 28 30 28 29 30 30 31 32 33 36 38 39 42 41 40 40 40 39 40 40 38
24 25 26 28 30 32 33 35 36 36 36 38 41 42 45 43 43 41 41 38 39 38
23 26 26 28 31 32 34 33 37 37 40 41 43 44 45 46 45 42 41 38 38 35
21 22 23 22 19 24 23 29 29 33 32 37 44 43 39 41 46 45 41 39 37 33
23 19 17 18 16 16 15 14 14 19 26 31 34 35 39 40 43 41 42 35 32 32
20 19 13 14 11 8 8 10 10 11 13 19 22 25 28 33 36 40 38 34 33 32
15 16 15 14 12 11 9 9 8 9 12 15 18 18 21 23 27 33 34 30 29 29
14 12 13 14 12 11 12 7 8 6 7 10 15 14 14 18 21 22 25 24 23 25
13 12 10 8 10 13 14 11 10 7 5 5 14 15 15 19 21 26 23 27 25 25
12 10 12 12 13 13 10 10 10 10 9 9 10 11 9 9 12 24 30 33 33 30
11 8 8 10 12 12 13 13 12 11 10 7 11 14 13 12 9 13 14 12 11 21
13 11 8 7 6 8 7 9 10 9 9 9 7 5 3 4 4 6 8 10 11 12
Wind_Direction
237 234 235 235 235 236 240 235 230 237 236 241 245 242 241 238 238 237 238 241 240 242
233 232 233 235 237 239 242 240 239 244 239 240 245 241 241 242 239 239 239 240 241 242
232 235 231 232 236 238 238 239 243 244 244 246 250 249 242 243 243 240 241 240 240 241
230 233 233 234 236 237 242 244 247 249 247 249 250 246 244 243 245 242 241 241 242 241
228 236 239 234 238 240 241 247 247 249 246 251 252 245 243 242 244 242 239 243 241 241
207 208 212 220 231 232 236 237 241 248 248 253 253 245 239 241 243 241 238 239 242 242
197 202 210 217 227 230 221 227 239 248 250 254 250 246 240 242 244 241 239 237 243 247
193 198 192 192 189 195 195 206 221 236 246 252 250 251 250 249 245 240 237 233 243 246
145 178 190 185 190 195 211 219 212 228 242 249 246 247 246 244 242 237 228 229 242 248
107 133 176 196 201 210 216 213 227 227 239 240 234 236 240 239 229 230 231 229 239 244
86 107 122 160 174 203 216 215 223 216 173 223 230 226 233 236 234 234 232 233 235 257
70 78 92 106 120 143 166 180 216 202 199 205 214 211 222 217 240 239 230 233 235 245
59 77 71 73 92 115 139 138 154 150 172 181 185 223 232 242 223 219 232 233 227 248
55 68 69 59 69 97 114 116 127 134 136 141 154 165 204 226 220 226 221 227 235 241